Time,TemperatureF,DewpointF,PressureIn,WindDirection,WindDirectionDegrees,WindSpeedMPH,WindSpeedGustMPH,Humidity,HourlyPrecipIn,Conditions,Clouds,dailyrainin,SoftwareType,DateUTC
2014-02-06 00:01:00,40.5,31.8,30.09,NNW,330,1.0,1.0,71,0.00,,,0.07,Wunderground v.1.15,2014-02-06 05:01:00,
2014-02-06 00:02:00,40.5,31.8,30.09,NNW,330,1.0,1.0,71,0.00,,,0.07,Wunderground v.1.15,2014-02-06 05:02:00,
2014-02-06 00:05:00,40.4,31.7,30.10,NNW,331,1.0,2.0,71,0.00,,,0.07,Wunderground v.1.15,2014-02-06 05:05:00,
2014-02-06 00:06:00,40.3,31.6,30.10,NNW,333,1.0,2.0,71,0.00,,,0.07,Wunderground v.1.15,2014-02-06 05:06:00,
2014-02-06 00:11:00,40.2,31.9,30.10,NNW,333,1.0,2.0,72,0.00,,,0.07,Wunderground v.1.15,2014-02-06 05:11:00,
2014-02-06 00:16:00,40.0,31.7,30.10,NNW,333,0.0,2.0,72,0.00,,,0.00,Wunderground v.1.15,2014-02-06 05:16:00,
2014-02-06 00:17:00,39.9,31.6,30.10,NNW,333,0.0,2.0,72,0.00,,,0.00,Wunderground v.1.15,2014-02-06 05:17:00,
2014-02-06 00:22:00,39.6,31.7,30.10,NNW,333,0.0,0.0,73,0.00,,,0.00,Wunderground v.1.15,2014-02-06 05:22:00,
2014-02-06 00:28:00,39.3,31.4,30.11,NNW,333,0.0,0.0,73,0.00,,,0.00,Wunderground v.1.15,2014-02-06 05:28:00,
2014-02-06 00:34:00,39.1,31.5,30.12,NNW,333,0.0,2.0,74,0.00,,,0.00,Wunderground v.1.15,2014-02-06 05:34:00,
2014-02-06 00:40:00,38.9,31.3,30.12,NNW,338,1.0,3.0,74,0.00,,,0.00,Wunderground v.1.15,2014-02-06 05:40:00,
2014-02-06 00:46:00,38.9,31.3,30.12,NNW,346,1.0,3.0,74,0.00,,,0.00,Wunderground v.1.15,2014-02-06 05:46:00,
2014-02-06 00:52:00,38.8,30.9,30.12,NNW,330,2.0,3.0,73,0.00,,,0.00,Wunderground v.1.15,2014-02-06 05:52:00,
2014-02-06 00:57:00,39.1,30.8,30.12,North,5,3.0,9.0,72,0.00,,,0.00,Wunderground v.1.15,2014-02-06 05:57:00,
2014-02-06 01:03:00,39.2,30.6,30.13,NNW,348,4.0,8.0,71,0.00,,,0.00,Wunderground v.1.15,2014-02-06 06:03:00,
2014-02-06 01:08:00,39.5,30.5,30.13,NNW,346,5.0,9.0,70,0.00,,,0.00,Wunderground v.1.15,2014-02-06 06:08:00,
2014-02-06 01:14:00,39.5,30.2,30.14,NNW,335,4.0,5.0,69,0.00,,,0.00,Wunderground v.1.15,2014-02-06 06:14:00,
2014-02-06 01:19:00,39.4,30.1,30.13,North,5,4.0,6.0,69,0.00,,,0.00,Wunderground v.1.15,2014-02-06 06:19:00,
2014-02-06 01:25:00,39.4,30.1,30.14,North,360,4.0,7.0,69,0.00,,,0.00,Wunderground v.1.15,2014-02-06 06:25:00,
2014-02-06 01:30:00,39.3,30.0,30.14,North,350,4.0,9.0,69,0.00,,,0.00,Wunderground v.1.15,2014-02-06 06:30:00,
2014-02-06 01:35:00,39.2,29.5,30.14,North,355,4.0,9.0,68,0.00,,,0.00,Wunderground v.1.15,2014-02-06 06:35:00,
2014-02-06 01:41:00,39.2,29.5,30.15,North,5,5.0,8.0,68,0.00,,,0.00,Wunderground v.1.15,2014-02-06 06:41:00,
2014-02-06 01:46:00,39.2,29.5,30.14,NNW,342,5.0,8.0,68,0.00,,,0.00,Wunderground v.1.15,2014-02-06 06:46:00,
2014-02-06 01:51:00,38.9,29.6,30.14,NNW,330,4.0,4.0,69,0.00,,,0.00,Wunderground v.1.15,2014-02-06 06:51:00,
2014-02-06 01:57:00,38.8,29.5,30.14,NNE,13,4.0,6.0,69,0.00,,,0.00,Wunderground v.1.15,2014-02-06 06:57:00,
2014-02-06 02:02:00,38.6,29.7,30.14,NNE,25,3.0,4.0,70,0.00,,,0.00,Wunderground v.1.15,2014-02-06 07:02:00,
2014-02-06 02:08:00,38.4,29.5,30.14,NNE,22,3.0,7.0,70,0.00,,,0.00,Wunderground v.1.15,2014-02-06 07:08:00,
2014-02-06 02:13:00,38.3,29.4,30.15,NNW,347,4.0,10.0,70,0.00,,,0.00,Wunderground v.1.15,2014-02-06 07:13:00,
2014-02-06 02:18:00,38.2,28.9,30.15,NNE,17,5.0,10.0,69,0.00,,,0.00,Wunderground v.1.15,2014-02-06 07:18:00,
2014-02-06 02:24:00,38.1,28.8,30.15,NNW,334,5.0,6.0,69,0.00,,,0.00,Wunderground v.1.15,2014-02-06 07:24:00,
2014-02-06 02:30:00,37.9,28.6,30.15,North,5,5.0,6.0,69,0.00,,,0.00,Wunderground v.1.15,2014-02-06 07:30:00,
2014-02-06 02:35:00,37.8,28.5,30.15,North,360,5.0,6.0,69,0.00,,,0.00,Wunderground v.1.15,2014-02-06 07:35:00,
2014-02-06 02:41:00,37.5,28.2,30.15,North,5,5.0,5.0,69,0.00,,,0.00,Wunderground v.1.15,2014-02-06 07:41:00,
2014-02-06 02:47:00,37.4,27.8,30.16,NNE,18,5.0,5.0,68,0.00,,,0.00,Wunderground v.1.15,2014-02-06 07:47:00,
2014-02-06 02:52:00,37.3,27.7,30.16,NNE,13,4.0,6.0,68,0.00,,,0.00,Wunderground v.1.15,2014-02-06 07:52:00,
2014-02-06 02:58:00,37.1,27.5,30.16,NNW,348,4.0,6.0,68,0.00,,,0.00,Wunderground v.1.15,2014-02-06 07:58:00,
2014-02-06 03:04:00,37.0,27.4,30.16,NE,42,4.0,9.0,68,0.00,,,0.00,Wunderground v.1.15,2014-02-06 08:04:00,
2014-02-06 03:10:00,36.9,27.7,30.16,NNW,333,5.0,5.0,69,0.00,,,0.00,Wunderground v.1.15,2014-02-06 08:10:00,
2014-02-06 03:15:00,36.7,27.5,30.17,North,360,4.0,8.0,69,0.00,,,0.00,Wunderground v.1.15,2014-02-06 08:15:00,
2014-02-06 03:20:00,36.6,27.4,30.17,North,355,4.0,4.0,69,0.00,,,0.00,Wunderground v.1.15,2014-02-06 08:20:00,
2014-02-06 03:26:00,36.5,27.3,30.18,NNE,17,3.0,5.0,69,0.00,,,0.00,Wunderground v.1.15,2014-02-06 08:26:00,
2014-02-06 03:32:00,36.3,27.4,30.18,North,349,2.0,3.0,70,0.00,,,0.00,Wunderground v.1.15,2014-02-06 08:32:00,
2014-02-06 03:37:00,36.1,27.6,30.17,ENE,76,2.0,3.0,71,0.00,,,0.00,Wunderground v.1.15,2014-02-06 08:37:00,
2014-02-06 03:43:00,35.9,27.4,30.17,North,5,3.0,6.0,71,0.00,,,0.00,Wunderground v.1.15,2014-02-06 08:43:00,
2014-02-06 03:49:00,35.8,27.0,30.17,NNE,22,4.0,10.0,70,0.00,,,0.00,Wunderground v.1.15,2014-02-06 08:49:00,
2014-02-06 03:54:00,35.8,26.6,30.18,North,5,5.0,11.0,69,0.00,,,0.00,Wunderground v.1.15,2014-02-06 08:54:00,
2014-02-06 04:00:00,35.6,26.4,30.17,ENE,63,5.0,5.0,69,0.00,,,0.00,Wunderground v.1.15,2014-02-06 09:00:00,
2014-02-06 04:06:00,35.5,26.3,30.18,North,5,5.0,8.0,69,0.00,,,0.00,Wunderground v.1.15,2014-02-06 09:06:00,
2014-02-06 04:11:00,35.3,26.1,30.18,NNW,348,5.0,7.0,69,0.00,,,0.00,Wunderground v.1.15,2014-02-06 09:11:00,
2014-02-06 04:16:00,35.2,26.0,30.18,NNE,13,5.0,7.0,69,0.00,,,0.00,Wunderground v.1.15,2014-02-06 09:16:00,
2014-02-06 04:22:00,35.1,25.9,30.18,North,9,5.0,5.0,69,0.00,,,0.00,Wunderground v.1.15,2014-02-06 09:22:00,
2014-02-06 04:28:00,35.0,26.2,30.19,NE,51,4.0,6.0,70,0.00,,,0.00,Wunderground v.1.15,2014-02-06 09:28:00,
2014-02-06 04:34:00,34.9,26.1,30.19,NNE,22,4.0,6.0,70,0.00,,,0.00,Wunderground v.1.15,2014-02-06 09:34:00,
2014-02-06 04:39:00,34.8,26.0,30.19,North,355,4.0,6.0,70,0.00,,,0.00,Wunderground v.1.15,2014-02-06 09:39:00,
2014-02-06 04:44:00,34.6,25.8,30.19,NW,319,3.0,5.0,70,0.00,,,0.00,Wunderground v.1.15,2014-02-06 09:44:00,
2014-02-06 04:50:00,34.4,25.6,30.19,NE,42,3.0,3.0,70,0.00,,,0.00,Wunderground v.1.15,2014-02-06 09:50:00,
2014-02-06 04:55:00,34.3,25.5,30.19,North,349,3.0,5.0,70,0.00,,,0.00,Wunderground v.1.15,2014-02-06 09:55:00,
2014-02-06 05:00:00,34.3,25.2,30.20,ENE,58,4.0,4.0,69,0.00,,,0.00,Wunderground v.1.15,2014-02-06 10:00:00,
2014-02-06 05:06:00,34.2,24.7,30.20,North,9,5.0,9.0,68,0.00,,,0.00,Wunderground v.1.15,2014-02-06 10:06:00,
2014-02-06 05:11:00,34.2,24.7,30.20,NNE,17,4.0,4.0,68,0.00,,,0.00,Wunderground v.1.15,2014-02-06 10:11:00,
2014-02-06 05:17:00,34.1,24.6,30.21,North,11,4.0,5.0,68,0.00,,,0.00,Wunderground v.1.15,2014-02-06 10:17:00,
2014-02-06 05:23:00,33.9,24.4,30.21,North,355,3.0,5.0,68,0.00,,,0.00,Wunderground v.1.15,2014-02-06 10:23:00,
2014-02-06 05:28:00,33.8,24.7,30.21,North,355,4.0,9.0,69,0.00,,,0.00,Wunderground v.1.15,2014-02-06 10:28:00,
2014-02-06 05:34:00,33.8,24.4,30.21,North,360,6.0,7.0,68,0.00,,,0.00,Wunderground v.1.15,2014-02-06 10:34:00,
2014-02-06 05:40:00,33.7,24.6,30.22,NW,319,5.0,5.0,69,0.00,,,0.00,Wunderground v.1.15,2014-02-06 10:40:00,
2014-02-06 05:46:00,33.6,24.5,30.21,NNW,340,4.0,8.0,69,0.00,,,0.00,Wunderground v.1.15,2014-02-06 10:46:00,
2014-02-06 05:51:00,33.5,24.4,30.22,NE,40,4.0,5.0,69,0.00,,,0.00,Wunderground v.1.15,2014-02-06 10:51:00,
2014-02-06 05:57:00,33.5,24.4,30.21,NNW,344,4.0,9.0,69,0.00,,,0.00,Wunderground v.1.15,2014-02-06 10:57:00,
2014-02-06 06:03:00,33.4,24.3,30.22,NNE,25,4.0,7.0,69,0.00,,,0.00,Wunderground v.1.15,2014-02-06 11:03:00,
2014-02-06 06:08:00,33.4,24.3,30.22,NNW,348,4.0,7.0,69,0.00,,,0.00,Wunderground v.1.15,2014-02-06 11:08:00,
2014-02-06 06:14:00,33.4,24.3,30.23,NNW,340,4.0,4.0,69,0.00,,,0.00,Wunderground v.1.15,2014-02-06 11:14:00,
2014-02-06 06:19:00,33.3,23.9,30.23,NNE,30,3.0,4.0,68,0.00,,,0.00,Wunderground v.1.15,2014-02-06 11:19:00,
2014-02-06 06:25:00,33.3,24.2,30.23,North,355,2.0,4.0,69,0.00,,,0.00,Wunderground v.1.15,2014-02-06 11:25:00,
2014-02-06 06:31:00,33.2,24.1,30.24,NNW,332,3.0,4.0,69,0.00,,,0.00,Wunderground v.1.15,2014-02-06 11:31:00,
2014-02-06 06:36:00,33.2,24.1,30.24,North,350,3.0,4.0,69,0.00,,,0.00,Wunderground v.1.15,2014-02-06 11:36:00,
2014-02-06 06:42:00,33.2,23.8,30.24,NE,40,3.0,8.0,68,0.00,,,0.00,Wunderground v.1.15,2014-02-06 11:42:00,
2014-02-06 06:47:00,33.3,23.9,30.24,NNW,345,4.0,8.0,68,0.00,,,0.00,Wunderground v.1.15,2014-02-06 11:47:00,
2014-02-06 06:52:00,33.2,23.8,30.24,NE,55,3.0,5.0,68,0.00,,,0.00,Wunderground v.1.15,2014-02-06 11:52:00,
2014-02-06 06:58:00,33.0,23.6,30.25,NE,51,2.0,5.0,68,0.00,,,0.00,Wunderground v.1.15,2014-02-06 11:58:00,
2014-02-06 07:04:00,33.0,23.6,30.24,North,5,3.0,6.0,68,0.00,,,0.00,Wunderground v.1.15,2014-02-06 12:04:00,
2014-02-06 07:10:00,33.0,23.6,30.25,NNW,342,3.0,3.0,68,0.00,,,0.00,Wunderground v.1.15,2014-02-06 12:10:00,
2014-02-06 07:16:00,32.9,23.8,30.25,NE,53,2.0,5.0,69,0.00,,,0.00,Wunderground v.1.15,2014-02-06 12:16:00,
2014-02-06 07:21:00,33.0,23.6,30.26,NNW,346,2.0,6.0,68,0.00,,,0.00,Wunderground v.1.15,2014-02-06 12:21:00,
2014-02-06 07:26:00,33.0,23.6,30.26,NNW,332,3.0,6.0,68,0.00,,,0.00,Wunderground v.1.15,2014-02-06 12:26:00,
2014-02-06 07:32:00,32.9,23.5,30.26,NNE,18,1.0,3.0,68,0.00,,,0.00,Wunderground v.1.15,2014-02-06 12:32:00,
2014-02-06 07:38:00,32.9,23.1,30.26,North,355,2.0,4.0,67,0.00,,,0.00,Wunderground v.1.15,2014-02-06 12:38:00,
2014-02-06 07:44:00,32.9,23.1,30.26,NNE,17,2.0,4.0,67,0.00,,,0.00,Wunderground v.1.15,2014-02-06 12:44:00,
2014-02-06 07:49:00,32.9,23.1,30.26,NNE,14,2.0,6.0,67,0.00,,,0.00,Wunderground v.1.15,2014-02-06 12:49:00,
2014-02-06 07:55:00,33.0,23.2,30.27,North,349,2.0,5.0,67,0.00,,,0.00,Wunderground v.1.15,2014-02-06 12:55:00,
2014-02-06 08:00:00,33.1,23.3,30.28,North,5,2.0,2.0,67,0.00,,,0.00,Wunderground v.1.15,2014-02-06 13:00:00,
2014-02-06 08:06:00,33.2,23.4,30.28,NNE,24,3.0,3.0,67,0.00,,,0.00,Wunderground v.1.15,2014-02-06 13:06:00,
2014-02-06 08:12:00,33.2,23.1,30.29,NNE,20,3.0,3.0,66,0.00,,,0.00,Wunderground v.1.15,2014-02-06 13:12:00,
2014-02-06 08:17:00,33.3,23.2,30.29,NNE,32,2.0,3.0,66,0.00,,,0.00,Wunderground v.1.15,2014-02-06 13:17:00,
2014-02-06 08:22:00,33.3,23.2,30.30,NW,323,2.0,4.0,66,0.00,,,0.00,Wunderground v.1.15,2014-02-06 13:22:00,
2014-02-06 08:28:00,33.4,23.3,30.29,NE,38,3.0,8.0,66,0.00,,,0.00,Wunderground v.1.15,2014-02-06 13:28:00,
2014-02-06 08:33:00,33.5,23.0,30.30,North,355,3.0,5.0,65,0.00,,,0.00,Wunderground v.1.15,2014-02-06 13:33:00,
2014-02-06 08:39:00,33.7,23.2,30.31,North,5,3.0,5.0,65,0.00,,,0.00,Wunderground v.1.15,2014-02-06 13:39:00,
2014-02-06 08:44:00,33.9,23.4,30.30,NNE,22,3.0,5.0,65,0.00,,,0.00,Wunderground v.1.15,2014-02-06 13:44:00,
2014-02-06 08:49:00,34.1,23.6,30.30,NNW,346,2.0,5.0,65,0.00,,,0.00,Wunderground v.1.15,2014-02-06 13:49:00,
2014-02-06 08:55:00,34.3,23.4,30.31,ENE,63,2.0,6.0,64,0.00,,,0.00,Wunderground v.1.15,2014-02-06 13:55:00,
2014-02-06 09:00:00,34.3,23.4,30.31,North,355,3.0,3.0,64,0.00,,,0.00,Wunderground v.1.15,2014-02-06 14:00:00,
2014-02-06 09:06:00,34.5,23.6,30.30,NNW,332,4.0,6.0,64,0.00,,,0.00,Wunderground v.1.15,2014-02-06 14:06:00,
2014-02-06 09:11:00,34.5,23.2,30.31,NNW,346,5.0,5.0,63,0.00,,,0.00,Wunderground v.1.15,2014-02-06 14:11:00,
2014-02-06 09:17:00,34.6,23.7,30.31,NNE,23,4.0,6.0,64,0.00,,,0.00,Wunderground v.1.15,2014-02-06 14:17:00,
2014-02-06 09:23:00,34.7,23.4,30.32,NNE,26,3.0,6.0,63,0.00,,,0.00,Wunderground v.1.15,2014-02-06 14:23:00,
2014-02-06 09:28:00,34.8,23.5,30.31,NE,40,4.0,6.0,63,0.00,,,0.00,Wunderground v.1.15,2014-02-06 14:28:00,
2014-02-06 09:34:00,35.0,23.7,30.32,North,355,3.0,5.0,63,0.00,,,0.00,Wunderground v.1.15,2014-02-06 14:34:00,
2014-02-06 09:40:00,35.2,23.5,30.32,NNE,16,4.0,8.0,62,0.00,,,0.00,Wunderground v.1.15,2014-02-06 14:40:00,
2014-02-06 09:45:00,35.2,23.5,30.32,NNE,28,4.0,8.0,62,0.00,,,0.00,Wunderground v.1.15,2014-02-06 14:45:00,
2014-02-06 09:50:00,35.3,23.2,30.32,NW,325,3.0,6.0,61,0.00,,,0.00,Wunderground v.1.15,2014-02-06 14:50:00,
2014-02-06 09:56:00,35.4,23.7,30.32,NNE,26,4.0,6.0,62,0.00,,,0.00,Wunderground v.1.15,2014-02-06 14:56:00,
2014-02-06 10:02:00,35.6,23.1,30.32,NNE,12,4.0,4.0,60,0.00,,,0.00,Wunderground v.1.15,2014-02-06 15:02:00,
2014-02-06 10:07:00,35.8,23.3,30.33,NNE,12,4.0,5.0,60,0.00,,,0.00,Wunderground v.1.15,2014-02-06 15:07:00,
2014-02-06 10:13:00,36.2,24.0,30.33,NNE,22,4.0,6.0,61,0.00,,,0.00,Wunderground v.1.15,2014-02-06 15:13:00,
2014-02-06 10:19:00,36.5,23.9,30.33,East,92,3.0,7.0,60,0.00,,,0.00,Wunderground v.1.15,2014-02-06 15:19:00,
2014-02-06 10:24:00,36.7,23.7,30.33,East,90,4.0,4.0,59,0.00,,,0.00,Wunderground v.1.15,2014-02-06 15:24:00,
2014-02-06 10:29:00,37.0,23.6,30.33,North,5,5.0,7.0,58,0.00,,,0.00,Wunderground v.1.15,2014-02-06 15:29:00,
2014-02-06 10:35:00,37.3,23.9,30.33,NE,34,5.0,6.0,58,0.00,,,0.00,Wunderground v.1.15,2014-02-06 15:35:00,
2014-02-06 10:41:00,37.7,24.2,30.33,NNE,24,4.0,4.0,58,0.00,,,0.00,Wunderground v.1.15,2014-02-06 15:41:00,
2014-02-06 10:46:00,37.8,23.9,30.32,NE,51,4.0,5.0,57,0.00,,,0.00,Wunderground v.1.15,2014-02-06 15:46:00,
2014-02-06 10:52:00,38.3,24.4,30.32,NE,51,3.0,5.0,57,0.00,,,0.00,Wunderground v.1.15,2014-02-06 15:52:00,
2014-02-06 10:57:00,38.6,24.2,30.33,NNE,14,2.0,5.0,56,0.00,,,0.00,Wunderground v.1.15,2014-02-06 15:57:00,
2014-02-06 11:03:00,39.0,24.2,30.32,North,5,3.0,4.0,55,0.00,,,0.00,Wunderground v.1.15,2014-02-06 16:03:00,
2014-02-06 11:08:00,39.0,23.7,30.32,ENE,63,3.0,5.0,54,0.00,,,0.00,Wunderground v.1.15,2014-02-06 16:08:00,
2014-02-06 11:14:00,39.0,24.2,30.32,NNW,342,3.0,4.0,55,0.00,,,0.00,Wunderground v.1.15,2014-02-06 16:14:00,
2014-02-06 11:20:00,39.8,25.8,30.32,NNE,15,2.0,3.0,57,0.00,,,0.00,Wunderground v.1.15,2014-02-06 16:20:00,
2014-02-06 11:25:00,40.3,25.0,30.31,ENE,59,1.0,3.0,54,0.00,,,0.00,Wunderground v.1.15,2014-02-06 16:25:00,
2014-02-06 11:30:00,40.7,25.8,30.31,NE,34,2.0,2.0,55,0.00,,,0.00,Wunderground v.1.15,2014-02-06 16:30:00,
2014-02-06 11:36:00,40.6,24.3,30.30,NNW,342,2.0,5.0,52,0.00,,,0.00,Wunderground v.1.15,2014-02-06 16:36:00,
2014-02-06 11:42:00,40.4,24.1,30.30,NNW,345,3.0,5.0,52,0.00,,,0.00,Wunderground v.1.15,2014-02-06 16:42:00,
2014-02-06 11:48:00,40.5,24.7,30.30,NE,56,3.0,7.0,53,0.00,,,0.00,Wunderground v.1.15,2014-02-06 16:48:00,
2014-02-06 11:53:00,40.4,25.1,30.30,NE,56,3.0,5.0,54,0.00,,,0.00,Wunderground v.1.15,2014-02-06 16:53:00,
2014-02-06 11:59:00,40.4,24.6,30.30,North,350,3.0,7.0,53,0.00,,,0.00,Wunderground v.1.15,2014-02-06 16:59:00,
2014-02-06 12:05:00,40.7,25.3,30.29,NW,325,4.0,6.0,54,0.00,,,0.00,Wunderground v.1.15,2014-02-06 17:05:00,
2014-02-06 12:11:00,41.3,25.0,30.30,North,350,4.0,5.0,52,0.00,,,0.00,Wunderground v.1.15,2014-02-06 17:11:00,
2014-02-06 12:16:00,41.4,26.0,30.29,NW,309,3.0,5.0,54,0.00,,,0.00,Wunderground v.1.15,2014-02-06 17:16:00,
2014-02-06 12:22:00,41.8,25.0,30.28,East,88,2.0,3.0,51,0.00,,,0.00,Wunderground v.1.15,2014-02-06 17:22:00,
2014-02-06 12:27:00,41.7,24.9,30.28,North,5,2.0,4.0,51,0.00,,,0.00,Wunderground v.1.15,2014-02-06 17:27:00,
2014-02-06 12:32:00,41.8,25.9,30.27,NNW,334,3.0,3.0,53,0.00,,,0.00,Wunderground v.1.15,2014-02-06 17:32:00,
2014-02-06 12:38:00,42.2,25.3,30.26,ENE,73,2.0,3.0,51,0.00,,,0.00,Wunderground v.1.15,2014-02-06 17:38:00,
2014-02-06 12:44:00,42.6,24.8,30.25,NE,44,2.0,3.0,49,0.00,,,0.00,Wunderground v.1.15,2014-02-06 17:44:00,
2014-02-06 12:50:00,42.5,25.6,30.25,North,5,2.0,3.0,51,0.00,,,0.00,Wunderground v.1.15,2014-02-06 17:50:00,
2014-02-06 12:55:00,42.5,25.1,30.25,North,360,2.0,5.0,50,0.00,,,0.00,Wunderground v.1.15,2014-02-06 17:55:00,
2014-02-06 13:00:00,42.4,25.1,30.26,NE,53,2.0,3.0,50,0.00,,,0.00,Wunderground v.1.15,2014-02-06 18:00:00,
2014-02-06 13:06:00,42.8,25.4,30.25,North,355,2.0,3.0,50,0.00,,,0.00,Wunderground v.1.15,2014-02-06 18:06:00,
2014-02-06 13:12:00,42.7,24.8,30.25,NW,323,3.0,4.0,49,0.00,,,0.00,Wunderground v.1.15,2014-02-06 18:12:00,
2014-02-06 13:18:00,43.1,25.2,30.24,WNW,290,2.0,5.0,49,0.00,,,0.00,Wunderground v.1.15,2014-02-06 18:18:00,
2014-02-06 13:23:00,42.5,24.7,30.25,WNW,296,2.0,4.0,49,0.00,,,0.00,Wunderground v.1.15,2014-02-06 18:23:00,
2014-02-06 13:29:00,42.5,24.7,30.25,NNE,18,2.0,4.0,49,0.00,,,0.00,Wunderground v.1.15,2014-02-06 18:29:00,
2014-02-06 13:35:00,42.7,25.8,30.25,NNW,332,1.0,3.0,51,0.00,,,0.00,Wunderground v.1.15,2014-02-06 18:35:00,
2014-02-06 13:41:00,42.8,25.4,30.26,WNW,286,1.0,1.0,50,0.00,,,0.00,Wunderground v.1.15,2014-02-06 18:41:00,
2014-02-06 13:46:00,42.7,24.8,30.25,North,360,1.0,4.0,49,0.00,,,0.00,Wunderground v.1.15,2014-02-06 18:46:00,
2014-02-06 13:51:00,42.4,24.6,30.25,ENE,64,2.0,3.0,49,0.00,,,0.00,Wunderground v.1.15,2014-02-06 18:51:00,
2014-02-06 13:56:00,42.4,24.6,30.25,NW,306,2.0,3.0,49,0.00,,,0.00,Wunderground v.1.15,2014-02-06 18:56:00,
2014-02-06 14:02:00,42.5,24.7,30.24,NE,36,1.0,2.0,49,0.00,,,0.00,Wunderground v.1.15,2014-02-06 19:02:00,
2014-02-06 14:08:00,42.6,24.8,30.24,North,350,2.0,4.0,49,0.00,,,0.00,Wunderground v.1.15,2014-02-06 19:08:00,
2014-02-06 14:13:00,42.5,24.7,30.24,NNW,347,1.0,2.0,49,0.00,,,0.00,Wunderground v.1.15,2014-02-06 19:13:00,
2014-02-06 14:19:00,42.4,24.6,30.24,NW,320,1.0,3.0,49,0.00,,,0.00,Wunderground v.1.15,2014-02-06 19:19:00,
2014-02-06 14:25:00,42.7,24.4,30.23,North,351,1.0,2.0,48,0.00,,,0.00,Wunderground v.1.15,2014-02-06 19:25:00,
2014-02-06 14:31:00,42.7,24.8,30.23,NNW,332,1.0,2.0,49,0.00,,,0.00,Wunderground v.1.15,2014-02-06 19:31:00,
2014-02-06 14:36:00,42.5,25.1,30.23,NNW,337,2.0,3.0,50,0.00,,,0.00,Wunderground v.1.15,2014-02-06 19:36:00,
2014-02-06 14:41:00,42.5,25.6,30.23,West,276,2.0,2.0,51,0.00,,,0.00,Wunderground v.1.15,2014-02-06 19:41:00,
2014-02-06 14:47:00,42.7,24.8,30.23,NE,46,1.0,2.0,49,0.00,,,0.00,Wunderground v.1.15,2014-02-06 19:47:00,
2014-02-06 14:53:00,42.8,25.4,30.23,North,351,2.0,5.0,50,0.00,,,0.00,Wunderground v.1.15,2014-02-06 19:53:00,
2014-02-06 14:59:00,42.8,24.9,30.23,NNE,15,2.0,5.0,49,0.00,,,0.00,Wunderground v.1.15,2014-02-06 19:59:00,
2014-02-06 15:04:00,42.9,25.0,30.22,NNE,14,2.0,4.0,49,0.00,,,0.00,Wunderground v.1.15,2014-02-06 20:04:00,
2014-02-06 15:10:00,42.7,24.8,30.22,NNE,28,2.0,2.0,49,0.00,,,0.00,Wunderground v.1.15,2014-02-06 20:10:00,
2014-02-06 15:16:00,42.7,25.3,30.22,NNW,346,1.0,2.0,50,0.00,,,0.00,Wunderground v.1.15,2014-02-06 20:16:00,
2014-02-06 15:21:00,42.8,25.4,30.22,ENE,67,1.0,1.0,50,0.00,,,0.00,Wunderground v.1.15,2014-02-06 20:21:00,
2014-02-06 15:26:00,42.8,24.9,30.22,SSE,157,1.0,2.0,49,0.00,,,0.00,Wunderground v.1.15,2014-02-06 20:26:00,
2014-02-06 15:32:00,42.8,24.9,30.23,NNE,22,1.0,1.0,49,0.00,,,0.00,Wunderground v.1.15,2014-02-06 20:32:00,
2014-02-06 15:37:00,42.9,25.0,30.24,SSE,148,1.0,2.0,49,0.00,,,0.00,Wunderground v.1.15,2014-02-06 20:37:00,
2014-02-06 15:42:00,42.9,25.0,30.24,NE,50,0.0,1.0,49,0.00,,,0.00,Wunderground v.1.15,2014-02-06 20:42:00,
2014-02-06 15:48:00,42.8,24.4,30.24,NNE,24,1.0,2.0,48,0.00,,,0.00,Wunderground v.1.15,2014-02-06 20:48:00,
2014-02-06 15:54:00,42.6,24.3,30.24,NNE,22,1.0,1.0,48,0.00,,,0.00,Wunderground v.1.15,2014-02-06 20:54:00,
2014-02-06 16:00:00,42.5,24.7,30.24,NNE,15,0.0,0.0,49,0.00,,,0.00,Wunderground v.1.15,2014-02-06 21:00:00,
2014-02-06 16:06:00,42.5,24.7,30.24,NNE,16,0.0,0.0,49,0.00,,,0.00,Wunderground v.1.15,2014-02-06 21:06:00,
2014-02-06 16:11:00,42.6,24.8,30.24,NNE,17,0.0,0.0,49,0.00,,,0.00,Wunderground v.1.15,2014-02-06 21:11:00,
2014-02-06 16:16:00,42.6,24.8,30.25,NNE,17,0.0,0.0,49,0.00,,,0.00,Wunderground v.1.15,2014-02-06 21:16:00,
2014-02-06 16:22:00,42.5,24.2,30.25,NW,323,0.0,2.0,48,0.00,,,0.00,Wunderground v.1.15,2014-02-06 21:22:00,
2014-02-06 16:27:00,42.4,24.6,30.25,NW,325,1.0,2.0,49,0.00,,,0.00,Wunderground v.1.15,2014-02-06 21:27:00,
2014-02-06 16:33:00,42.3,25.0,30.24,NW,315,1.0,3.0,50,0.00,,,0.00,Wunderground v.1.15,2014-02-06 21:33:00,
2014-02-06 16:39:00,42.2,24.4,30.24,NW,317,1.0,3.0,49,0.00,,,0.00,Wunderground v.1.15,2014-02-06 21:39:00,
2014-02-06 16:44:00,42.2,24.9,30.23,North,5,1.0,2.0,50,0.00,,,0.00,Wunderground v.1.15,2014-02-06 21:44:00,
2014-02-06 16:49:00,42.2,24.9,30.23,North,355,2.0,5.0,50,0.00,,,0.00,Wunderground v.1.15,2014-02-06 21:49:00,
2014-02-06 16:55:00,42.3,25.0,30.23,North,355,2.0,5.0,50,0.00,,,0.00,Wunderground v.1.15,2014-02-06 21:55:00,
2014-02-06 17:00:00,42.3,25.0,30.24,ENE,59,2.0,2.0,50,0.00,,,0.00,Wunderground v.1.15,2014-02-06 22:00:00,
2014-02-06 17:06:00,42.2,24.9,30.24,North,355,1.0,2.0,50,0.00,,,0.00,Wunderground v.1.15,2014-02-06 22:06:00,
2014-02-06 17:12:00,42.1,25.3,30.24,North,355,1.0,1.0,51,0.00,,,0.00,Wunderground v.1.15,2014-02-06 22:12:00,
2014-02-06 17:17:00,42.0,25.2,30.25,North,355,0.0,1.0,51,0.00,,,0.00,Wunderground v.1.15,2014-02-06 22:17:00,
2014-02-06 17:23:00,42.0,25.6,30.25,North,355,0.0,2.0,52,0.00,,,0.00,Wunderground v.1.15,2014-02-06 22:23:00,
2014-02-06 17:29:00,41.9,25.1,30.25,North,355,0.0,2.0,51,0.00,,,0.00,Wunderground v.1.15,2014-02-06 22:29:00,
2014-02-06 17:34:00,41.9,25.1,30.25,North,355,0.0,0.0,51,0.00,,,0.00,Wunderground v.1.15,2014-02-06 22:34:00,
2014-02-06 17:40:00,41.9,25.1,30.25,North,355,0.0,0.0,51,0.00,,,0.00,Wunderground v.1.15,2014-02-06 22:40:00,
2014-02-06 17:46:00,41.8,25.0,30.24,ENE,69,0.0,1.0,51,0.00,,,0.00,Wunderground v.1.15,2014-02-06 22:46:00,
2014-02-06 17:51:00,41.7,25.8,30.24,NE,40,0.0,2.0,53,0.00,,,0.00,Wunderground v.1.15,2014-02-06 22:51:00,
2014-02-06 17:57:00,41.6,26.2,30.23,ENE,76,1.0,2.0,54,0.00,,,0.00,Wunderground v.1.15,2014-02-06 22:57:00,
2014-02-06 18:03:00,41.4,26.0,30.25,ENE,76,0.0,1.0,54,0.00,,,0.00,Wunderground v.1.15,2014-02-06 23:03:00,
2014-02-06 18:08:00,41.3,26.3,30.26,ENE,76,0.0,1.0,55,0.00,,,0.00,Wunderground v.1.15,2014-02-06 23:08:00,
2014-02-06 18:14:00,41.0,26.5,30.26,ENE,76,0.0,0.0,56,0.00,,,0.00,Wunderground v.1.15,2014-02-06 23:14:00,
2014-02-06 18:19:00,40.9,26.4,30.26,ENE,76,0.0,0.0,56,0.00,,,0.00,Wunderground v.1.15,2014-02-06 23:19:00,
2014-02-06 18:25:00,40.9,26.4,30.27,ENE,76,0.0,0.0,56,0.00,,,0.00,Wunderground v.1.15,2014-02-06 23:25:00,
2014-02-06 18:30:00,40.8,26.7,30.27,SE,142,0.0,0.0,57,0.00,,,0.00,Wunderground v.1.15,2014-02-06 23:30:00,
2014-02-06 18:36:00,40.7,26.6,30.28,SE,142,0.0,0.0,57,0.00,,,0.00,Wunderground v.1.15,2014-02-06 23:36:00,
2014-02-06 18:42:00,40.6,26.5,30.28,SE,142,0.0,0.0,57,0.00,,,0.00,Wunderground v.1.15,2014-02-06 23:42:00,
2014-02-06 18:47:00,40.6,26.5,30.29,SE,142,0.0,0.0,57,0.00,,,0.00,Wunderground v.1.15,2014-02-06 23:47:00,
2014-02-06 18:52:00,40.5,27.3,30.30,SE,142,0.0,0.0,59,0.00,,,0.00,Wunderground v.1.15,2014-02-06 23:52:00,
2014-02-06 18:57:00,40.4,27.6,30.30,SE,142,0.0,0.0,60,0.00,,,0.00,Wunderground v.1.15,2014-02-06 23:57:00,
2014-02-06 19:03:00,40.3,27.9,30.31,SE,142,0.0,0.0,61,0.00,,,0.00,Wunderground v.1.15,2014-02-07 00:03:00,
2014-02-06 19:08:00,40.1,27.3,30.31,SE,142,0.0,0.0,60,0.00,,,0.00,Wunderground v.1.15,2014-02-07 00:08:00,
2014-02-06 19:13:00,40.1,26.9,30.31,SE,142,0.0,0.0,59,0.00,,,0.00,Wunderground v.1.15,2014-02-07 00:13:00,
2014-02-06 19:19:00,40.0,26.8,30.30,SE,142,0.0,0.0,59,0.00,,,0.00,Wunderground v.1.15,2014-02-07 00:19:00,
2014-02-06 19:25:00,40.1,27.3,30.30,SE,142,0.0,0.0,60,0.00,,,0.00,Wunderground v.1.15,2014-02-07 00:25:00,
2014-02-06 19:30:00,40.1,27.7,30.31,SE,142,0.0,0.0,61,0.00,,,0.00,Wunderground v.1.15,2014-02-07 00:30:00,
2014-02-06 19:36:00,40.0,27.2,30.30,SE,142,0.0,0.0,60,0.00,,,0.00,Wunderground v.1.15,2014-02-07 00:36:00,
2014-02-06 19:41:00,40.0,26.8,30.30,SE,142,0.0,0.0,59,0.00,,,0.00,Wunderground v.1.15,2014-02-07 00:41:00,
2014-02-06 19:47:00,40.0,27.6,30.31,SE,142,0.0,0.0,61,0.00,,,0.00,Wunderground v.1.15,2014-02-07 00:47:00,
2014-02-06 19:53:00,39.8,27.8,30.32,SE,142,0.0,0.0,62,0.00,,,0.00,Wunderground v.1.15,2014-02-07 00:53:00,
2014-02-06 19:58:00,39.8,27.8,30.32,SE,142,0.0,0.0,62,0.00,,,0.00,Wunderground v.1.15,2014-02-07 00:58:00,
2014-02-06 20:03:00,39.7,27.7,30.32,SE,142,0.0,0.0,62,0.00,,,0.00,Wunderground v.1.15,2014-02-07 01:03:00,
2014-02-06 20:09:00,39.7,28.1,30.31,SE,142,0.0,0.0,63,0.00,,,0.00,Wunderground v.1.15,2014-02-07 01:09:00,
2014-02-06 20:14:00,39.7,28.9,30.31,SE,136,0.0,0.0,65,0.00,,,0.00,Wunderground v.1.15,2014-02-07 01:14:00,
2014-02-06 20:19:00,39.7,28.5,30.31,ESE,109,0.0,0.0,64,0.00,,,0.00,Wunderground v.1.15,2014-02-07 01:19:00,
2014-02-06 20:25:00,39.7,28.9,30.30,ESE,109,0.0,0.0,65,0.00,,,0.00,Wunderground v.1.15,2014-02-07 01:25:00,
2014-02-06 20:31:00,39.6,28.8,30.30,ESE,109,0.0,0.0,65,0.00,,,0.00,Wunderground v.1.15,2014-02-07 01:31:00,
2014-02-06 20:36:00,39.5,29.1,30.29,ESE,109,0.0,0.0,66,0.00,,,0.00,Wunderground v.1.15,2014-02-07 01:36:00,
2014-02-06 20:42:00,39.3,30.3,30.30,ESE,109,0.0,0.0,70,0.00,,,0.00,Wunderground v.1.15,2014-02-07 01:42:00,
2014-02-06 20:48:00,39.1,30.1,30.29,ESE,109,0.0,0.0,70,0.00,,,0.00,Wunderground v.1.15,2014-02-07 01:48:00,
2014-02-06 20:53:00,39.1,29.8,30.29,ESE,109,0.0,0.0,69,0.00,,,0.00,Wunderground v.1.15,2014-02-07 01:53:00,
2014-02-06 20:59:00,39.0,29.7,30.29,ESE,109,0.0,0.0,69,0.00,,,0.00,Wunderground v.1.15,2014-02-07 01:59:00,
2014-02-06 21:05:00,39.1,29.4,30.28,ESE,109,0.0,0.0,68,0.00,,,0.00,Wunderground v.1.15,2014-02-07 02:05:00,
2014-02-06 21:11:00,39.1,29.4,30.27,East,84,0.0,0.0,68,0.00,,,0.00,Wunderground v.1.15,2014-02-07 02:11:00,
2014-02-06 21:17:00,39.1,29.8,30.27,East,84,0.0,0.0,69,0.00,,,0.00,Wunderground v.1.15,2014-02-07 02:17:00,
2014-02-06 21:23:00,39.1,29.4,30.27,East,84,0.0,0.0,68,0.00,,,0.00,Wunderground v.1.15,2014-02-07 02:23:00,
2014-02-06 21:29:00,39.0,29.3,30.28,East,84,0.0,0.0,68,0.00,,,0.00,Wunderground v.1.15,2014-02-07 02:29:00,
2014-02-06 21:35:00,38.9,29.9,30.28,East,84,0.0,0.0,70,0.00,,,0.00,Wunderground v.1.15,2014-02-07 02:35:00,
2014-02-06 21:41:00,38.8,29.8,30.29,East,84,0.0,0.0,70,0.00,,,0.00,Wunderground v.1.15,2014-02-07 02:41:00,
2014-02-06 21:47:00,38.7,29.8,30.30,East,84,0.0,0.0,70,0.00,,,0.00,Wunderground v.1.15,2014-02-07 02:47:00,
2014-02-06 21:52:00,38.6,29.7,30.29,East,84,0.0,0.0,70,0.00,,,0.00,Wunderground v.1.15,2014-02-07 02:52:00,
2014-02-06 21:57:00,38.6,29.7,30.29,East,84,0.0,0.0,70,0.00,,,0.00,Wunderground v.1.15,2014-02-07 02:57:00,
2014-02-06 22:03:00,38.6,30.0,30.29,East,84,0.0,0.0,71,0.00,,,0.00,Wunderground v.1.15,2014-02-07 03:03:00,
2014-02-06 22:08:00,38.6,29.7,30.29,East,84,0.0,0.0,70,0.00,,,0.00,Wunderground v.1.15,2014-02-07 03:08:00,
2014-02-06 22:13:00,38.6,29.7,30.29,East,84,0.0,0.0,70,0.00,,,0.00,Wunderground v.1.15,2014-02-07 03:13:00,
2014-02-06 22:19:00,38.6,29.7,30.30,East,84,0.0,0.0,70,0.00,,,0.00,Wunderground v.1.15,2014-02-07 03:19:00,
2014-02-06 22:24:00,38.6,29.3,30.30,East,84,0.0,0.0,69,0.00,,,0.00,Wunderground v.1.15,2014-02-07 03:24:00,
2014-02-06 22:30:00,38.6,29.7,30.30,East,84,0.0,0.0,70,0.00,,,0.00,Wunderground v.1.15,2014-02-07 03:30:00,
2014-02-06 22:35:00,38.6,29.7,30.28,East,84,0.0,0.0,70,0.00,,,0.00,Wunderground v.1.15,2014-02-07 03:35:00,
2014-02-06 22:41:00,38.6,29.7,30.29,East,84,0.0,0.0,70,0.00,,,0.00,Wunderground v.1.15,2014-02-07 03:41:00,
2014-02-06 22:46:00,38.6,30.0,30.30,East,84,0.0,0.0,71,0.00,,,0.00,Wunderground v.1.15,2014-02-07 03:46:00,
2014-02-06 22:52:00,38.4,29.8,30.30,East,84,0.0,0.0,71,0.00,,,0.00,Wunderground v.1.15,2014-02-07 03:52:00,
2014-02-06 22:58:00,38.3,30.1,30.30,East,84,0.0,0.0,72,0.00,,,0.00,Wunderground v.1.15,2014-02-07 03:58:00,
2014-02-06 23:04:00,38.2,29.6,30.30,East,84,0.0,0.0,71,0.00,,,0.00,Wunderground v.1.15,2014-02-07 04:04:00,
2014-02-06 23:09:00,38.2,29.6,30.30,East,84,0.0,0.0,71,0.00,,,0.00,Wunderground v.1.15,2014-02-07 04:09:00,
2014-02-06 23:15:00,38.2,29.6,30.30,East,84,0.0,0.0,71,0.00,,,0.00,Wunderground v.1.15,2014-02-07 04:15:00,
2014-02-06 23:21:00,38.2,29.6,30.30,East,84,0.0,0.0,71,0.00,,,0.00,Wunderground v.1.15,2014-02-07 04:21:00,
2014-02-06 23:26:00,38.3,30.1,30.30,East,84,0.0,0.0,72,0.00,,,0.00,Wunderground v.1.15,2014-02-07 04:26:00,
2014-02-06 23:32:00,38.3,30.1,30.30,East,84,0.0,0.0,72,0.00,,,0.00,Wunderground v.1.15,2014-02-07 04:32:00,
2014-02-06 23:38:00,38.4,30.5,30.30,East,84,0.0,0.0,73,0.00,,,0.00,Wunderground v.1.15,2014-02-07 04:38:00,
2014-02-06 23:44:00,38.4,31.2,30.29,East,84,0.0,0.0,75,0.00,,,0.00,Wunderground v.1.15,2014-02-07 04:44:00,
2014-02-06 23:50:00,38.3,31.1,30.29,East,84,0.0,0.0,75,0.00,,,0.00,Wunderground v.1.15,2014-02-07 04:50:00,
2014-02-06 23:55:00,38.3,30.4,30.29,East,84,0.0,0.0,73,0.00,,,0.00,Wunderground v.1.15,2014-02-07 04:55:00,